Regional Weather Roundup
Issued by NWS

Home | Current Version | Previous Version | Text Only | Print | Product List | Glossary Off
Versions: 1 2 3 4 5 6 7 8 9 10 11 12 13 14 15 16 17 18 19 20 21 22 23 24 25 26 27 28 29 30 31 32 33 34 35 36 37 38 39 40 41 42 43 44 45 46 47 48 49 50

000
ASUS43 KMPX 190210
RWRMN
WEATHER ROUNDUP FOR MINNESOTA
NATIONAL WEATHER SERVICE TWIN CITIES/CHANHASSEN MN
800 PM CST SUN FEB 18 2018


NOTE: "FAIR" INDICATES FEW OR NO CLOUDS BELOW 12,000 FEET WITH NO
SIGNIFICANT WEATHER AND/OR OBSTRUCTIONS TO VISIBILITY. N/A MEANS
CURRENT SKY AND/OR WEATHER CONDITIONS ARE NOT AVAILABLE.

MNZ060>063-068>070-190300-
   Twin Cities Metro

CITY           SKY/WX    TMP DP  RH WIND       PRES   REMARKS
TWIN CITIES    MOCLDY    37  31  78 S5        29.67R
ST PAUL        FAIR      36  30  79 S6        29.68R
CRYSTAL        FAIR      36  28  73 SE3       29.66R
BLAINE         MOCLDY    37  30  75 SE5       29.66R
LAKEVILLE      FAIR      32  28  86 CALM      29.66R
EDEN PRAIRIE   FAIR      38  29  70 SE3       29.66R
SOUTH ST PAUL  FAIR      38  30  72 S3        29.67R
LAKE ELMO      FAIR      34  30  86 S6        29.69R WCI  29
$$
MNZ001>005-007-008-013>017-022>024-027-028-190300-
   Northwest Minnesota

CITY           SKY/WX    TMP DP  RH WIND       PRES   REMARKS
BEMIDJI        CLOUDY    10   6  84 N10       29.89R WCI  -4
HALLOCK        FAIR       9   0  66 N15       30.06R WCI  -8
WARROAD        FAIR       7   0  72 N7        30.01R WCI  -5
THIEF RVR FALL FAIR       8   2  76 N15       29.99R WCI  -9
CROOKSTON      FAIR      10   5  79 N12       30.01R WCI  -4
FOSSTON        FAIR       7   1  78 N14G21    29.94R WCI -10
DETROIT LAKES  FAIR      16  10  79 N8        29.87R WCI   5
MOORHEAD       FAIR      10   5  79 N23G29    29.93R WCI -10
PARK RAPIDS    CLOUDY    15   9  76 N16G23    29.81R WCI  -1
MAHNOMEN       FAIR       9   4  82 N16       29.90R WCI  -9
$$
MNZ006-009>011-018-025>026-190300-
   North Central Minnesota

CITY           SKY/WX    TMP DP  RH WIND       PRES   REMARKS
BAUDETTE       CLOUDY     7   2  80 N10       29.96R WCI  -8
FLAG ISLAND    FAIR       3  -2  78 N5        30.01R WCI  -6
INTL FALLS     CLOUDY     9   4  80 NE10      29.92R WCI  -5
WASKISH        CLOUDY    10   7  85 N7        29.93R WCI   0
BIG FORK       FLURRIES  10   5  79 N7        29.87R WCI   0
LONGVILLE      CLOUDY    16  10  79 N8G16     29.83R WCI   5
GRAND RAPIDS   FLURRIES  14   9  80 N8        29.84R WCI   3
CRANE LAKE     CLOUDY     9   3  78 N3        29.92R
ORR            FLURRIES   9   3  78 CALM      29.85R
COOK             N/A     10   7  85 N7        29.86R WCI   0
WALKER         CLOUDY    12   8  81 N12       29.85R WCI  -2
$$
MNZ012-019>021-037-190300-
   Northeast Minnesota

CITY           SKY/WX    TMP DP  RH WIND       PRES   REMARKS
DULUTH         LGT SNOW  22  19  89 N9        29.75R FOG     WCI  12
ELY            CLOUDY     9   3  78 NE5       29.84R WCI   0
HIBBING        CLOUDY    13   9  84 N10       29.82R WCI   0
EVELETH        CLOUDY   N/A N/A N/A NE9       29.82R
DULUTH HARBOR  LGT SNOW  28  27  93 NE21      29.79R VSB 1   WCI  15
TWO HARBORS    LGT SNOW  25  19  80 N7        29.76R WCI  17
GRAND MARAIS     N/A     17   9  70 N10G18    29.83R WCI   5
G MARAIS ARPRT FLURRIES   9   1  72 N16       29.76R WCI  -9
$$
MNZ029>031-032-039>041-046>048-054>057-064-190300-
   West Central Minnesota

CITY           SKY/WX    TMP DP  RH WIND       PRES   REMARKS
FERGUS FALLS   FAIR      16  10  79 N13G18    29.84R WCI   2
WHEATON        CLOUDY    16  10  79 N22G28    29.85R WCI  -2
MORRIS         CLOUDY    21  12  68 N21       29.77R WCI   6
ALEXANDRIA     MOCLDY    19  13  77 N14       29.77R WCI   6
ELBOW LAKE     FAIR      20  13  75 NE16      29.81R WCI   6
WADENA         CLOUDY    18  12  79 N14G20    29.79S WCI   4
GLENWOOD       FAIR      19  16  86 N14G24    29.75R WCI   6
APPLETON       MOCLDY    25  16  68 N21G26    29.76S WCI  10
BENSON         CLOUDY    23  16  74 NE13G21   29.77R WCI  11
ORTONVILLE     CLOUDY    18  10  73 N22G33    29.79R WCI   0
MADISON        PTCLDY    25  18  74 N21G29    29.76F WCI  10
WILLMAR        FAIR      25  18  74 N14G23    29.75R WCI  13
$$
MNZ033>034-036-042>043-049>051-058-059-190300-
   Central Minnesota

CITY           SKY/WX    TMP DP  RH WIND       PRES   REMARKS
ST CLOUD       CLOUDY    24  19  81 N14G23    29.72R WCI  12
SAUK CENTRE    CLOUDY    21  15  77 N16G25    29.74S WCI   7
PAYNESVILLE    FAIR      23  19  83 N13G21    29.73R WCI  12
AITKIN         FLURRIES  18  16  93 N10G18    29.77R WCI   6
PINE RIVER     CLOUDY    16  10  79 N16       29.83R WCI   0
BRAINERD       CLOUDY    21  14  74 N9        29.78R WCI  11
STAPLES        CLOUDY    18  12  79 N14G20    29.79R WCI   4
LONG PRAIRIE   MOCLDY    21  14  73 NW13      29.75S WCI   9
LITTLE FALLS   CLOUDY    21  14  73 N3        29.77R
LITCHFIELD     FAIR      28  21  74 N10       29.70R WCI  19
BUFFALO        FAIR      33  27  78 NW9       29.69R WCI  25
MAPLE LAKE     FAIR      30  23  73 N15       29.70R WCI  19
HUTCHINSON     FAIR      32  24  73 N16G23    29.67R WCI  21
$$
MNZ037-044-045-052-053-190300-
   East Central Minnesota

CITY           SKY/WX    TMP DP  RH WIND       PRES   REMARKS
PRINCETON      CLOUDY    28  21  74 N13       29.72R WCI  18
MORA           RAIN      25  21  86 N5        29.73R WCI  19
CAMBRIDGE      CLOUDY    28  19  69 N7        29.72R WCI  21
RUSH CITY      CLOUDY    26  22  85 N10       29.71R WCI  16
MOOSE LAKE     LGT SNOW  23  21  93 N7        29.74R WCI  15
HINCKLEY       LGT SNOW  27  23  86 N13       29.73R WCI  16
CLOQUET        LGT SNOW  21  18  86 N7        29.76R WCI  13
MCGREGOR       CLOUDY    21  19  93 N9        29.78R WCI  11
$$
MNZ071>073-080-081-089-090-097-098-190300-
   Southwest Minnesota

CITY           SKY/WX    TMP DP  RH WIND       PRES   REMARKS
MONTEVIDEO     PTCLDY    25  16  68 NE18      29.73F WCI  11
GRANITE FALLS  PTCLDY    27  19  72 N23       29.71F WCI  12
CANBY          MOCLDY    24  18  78 N20G28    29.73F WCI   9
MARSHALL       CLOUDY    24  17  74 N24G31    29.68F WCI   8
REDWOOD FALLS  CLOUDY    30  20  66 N13G25    29.68R WCI  20
OLIVIA         CLOUDY    30  19  64 N15G21    29.69R WCI  19
PIPESTONE      PTCLDY    25  19  80 N13G24    29.70R WCI  13
WINDOM         CLOUDY    34  18  51 N18       29.64F WCI  23
WORTHINGTON    CLOUDY    31  26  82 N16       29.67R WCI  20
JACKSON        CLEAR     34  30  86 N14       29.65  WCI  24
TRACY          MOCLDY    28  21  75 N20G25    29.67F WCI  14
SLAYTON        PTCLDY    28  22  79 N16G26    29.68R WCI  15
$$
MNZ065>067-074>077-082>085-091>093-190300-
   South Central Minnesota

CITY           SKY/WX    TMP DP  RH WIND       PRES   REMARKS
MANKATO        FAIR      37  30  75 S6        29.65R
NEW ULM        CLOUDY    34  28  80 W6        29.65R WCI  29
ST JAMES       CLOUDY    36  30  80 W13       29.65S
FAIRMONT       CLOUDY    37  31  78 SW6       29.64S
GLENCOE        FAIR      35  32  88 CALM      29.65R
FARIBAULT      FAIR      37  30  75 CALM      29.66R
OWATONNA       CLOUDY    37  30  75 S15G23    29.64S
WASECA         CLOUDY    37  30  75 S13       29.65S
ALBERT LEA     CLOUDY    36  28  75 S9        29.64F
$$
MNZ078>079-086>088-094>096-190300-
   Southeast Minnesota

CITY           SKY/WX    TMP DP  RH WIND       PRES   REMARKS
ROCHESTER      FAIR      35  29  78 S17G28    29.67S WCI  25
RED WING       CLOUDY    39  27  60 S8        29.67S
STANTON        FAIR      38  31  75 S10       29.65R
DODGE CENTER   FAIR      36  28  75 S15       29.65F
WINONA         FAIR      37  28  70 S10G20    29.71S
AUSTIN         FAIR      36  28  75 S8G16     29.66F
PRESTON        FAIR      34  29  80 S14       29.70F WCI  25
$$
ABBREVIATIONS USED IN REMARKS
   TC - TEMPERATURES IN CELSIUS
  WCI - WIND CHILL INDEX
   HX - HEAT INDEX
  VSB - VISIBILITY
$$



USA.gov is the U.S. government's official web portal to all federal, state and local government web resources and services.